CAPE
0 0 0 0 0 0 0 0 0 0 0 0 0 0 0 0 0 0 0 578 362 258 178 168 256 526 858 1519 1822 1774 1706 2002 1938 1673 1774 1449 1369 1476 1633 1766 1978 2226 2082 3036 3469 3250 3125 3104 3412 3376 3209 3295 3332 3732 4004 4148 4132 4083 3886 3672 3592 3551 3844 3830 3600 3490 3382 2972 2814 2803 2640 2679 2479 2813 3217 3247 3074 2593 2312 2789 2774 2498 2434 2088 1768 1588
0 0 0 0 0 0 0 0 0 0 0 0 0 0 0 0 3 0 449 826 692 282 525 894 625 559 971 1183 1723 2048 1533 1535 1874 1866 1835 1564 1522 1416 1614 1658 2058 2430 2448 3553 3470 3280 3436 3141 3384 3286 3303 3380 3590 3722 3651 3570 3373 3558 3576 3556 3693 4016 4116 4437 4287 4126 3826 3676 2979 2612 2481 2406 2197 2250 2212 1738 1460 1232 1836 2047 2104 2152 2038 1999 1761 1682
0 0 0 0 0 0 0 0 0 0 0 0 0 0 0 0 40 88 345 482 718 376 549 1000 784 1048 1285 1580 1940 2004 1419 1085 1282 1598 1746 1819 1688 1880 1924 2051 2668 2760 3185 3154 3001 3464 3213 3300 3453 3558 3471 3503 3524 3796 3698 3642 3688 3840 3760 3624 3580 3619 3600 4300 4029 4037 3758 3589 3622 3614 3123 2251 1058 1098 1160 814 1104 1558 1847 1998 2222 2029 1735 1758 1910 1922
0 0 0 0 0 0 0 0 0 0 0 0 0 0 0 0 0 10 286 401 719 117 424 1234 548 1672 1838 2398 1908 2108 1435 2210 2602 2359 2364 2251 2394 2014 1809 2025 2735 2804 3374 3207 3145 2944 3131 3500 3628 3660 3790 3811 3558 3580 3666 3606 3664 3876 3785 3875 3721 3654 3646 2970 3076 2816 2952 2688 2831 2615 1867 1587 1285 858 1171 1578 1360 877 1174 1748 2156 1981 1936 1901 1883 1897
0 0 0 0 0 0 0 0 0 0 0 0 0 0 0 0 0 0 285 450 678 477 1008 1160 690 1562 1667 1302 1704 2131 2550 2287 2222 2476 2580 2489 2511 2640 2238 2243 2566 2482 3042 2828 2874 2520 3148 3521 3485 3818 3852 3712 3631 3520 3444 3776 3928 3788 3884 3831 3691 3408 3181 2960 2950 2876 2330 2276 1918 1406 1438 1281 836 1005 518 482 404 488 549 439 1344 1326 1537 1738 1797 1805
0 0 0 0 0 0 0 0 0 0 0 0 0 0 0 0 0 0 510 610 276 406 612 759 294 328 1134 840 474 1120 2145 2185 2047 2095 2386 2754 2456 2913 2994 3121 3016 2863 2796 2840 2860 3072 3005 3173 3661 3943 4051 3842 3525 3612 4057 3884 4144 4042 3877 3896 3557 3101 2807 2488 2246 1897 1737 1348 1185 1040 782 356 523 473 442 359 382 406 591 597 598 804 1091 1150 1415 1327
0 0 0 0 0 0 0 0 0 0 0 0 0 0 0 0 0 18 476 64 0 35 426 452 71 0 167 1134 1024 1225 1424 1641 2199 2314 1846 2436 2896 2619 2530 2480 2828 2833 2928 3013 2635 2748 2794 3057 3624 3890 3886 3536 3364 4032 4026 4240 4236 3953 3648 3504 3144 2669 2243 2086 1910 1625 1468 1659 1168 462 227 261 255 233 278 433 524 600 691 582 627 573 684 1049 1171 1109
0 0 0 0 0 0 0 0 0 0 0 0 0 0 0 0 50 246 131 1 0 24 638 562 268 3 7 408 1199 1494 1694 1525 1928 2394 2196 1852 2718 2255 2238 2264 2846 2742 2630 2766 3170 3060 2840 3273 3130 3477 3714 3411 3376 4114 4089 4040 4049 3690 3189 2859 2376 1968 1757 1652 1485 1298 938 630 426 449 443 268 289 154 335 443 618 550 436 436 497 554 755 1117 1221 1316
0 0 0 0 0 0 0 0 0 0 0 3 0 0 0 6 38 18 2 0 165 153 784 981 518 143 0 339 811 1334 1586 1675 1766 2114 2143 2128 2340 2534 2233 2146 2656 2887 2691 2523 2692 2916 2918 3199 3294 3404 3659 3422 3783 3620 3736 3772 3473 3050 2596 2339 1994 1647 1427 1461 1225 863 642 765 620 472 384 404 370 323 398 198 427 454 577 536 486 562 654 893 1097 1259
0 0 0 0 0 0 0 0 0 0 0 2 60 68 86 81 36 10 3 0 90 18 0 117 432 10 0 15 1025 1211 1294 1554 1601 1804 1785 2058 2310 2517 2317 2174 2379 2973 3021 2728 2512 2676 2962 3167 3261 3392 3494 3736 2776 2882 2950 2333 2305 2160 2012 1700 1445 1295 1286 1312 1032 1216 1134 639 613 590 646 675 813 812 740 528 654 693 568 618 548 559 584 537 788 776
0 0 0 0 0 0 0 0 0 0 0 14 39 39 53 36 47 39 1 2 0 0 0 0 15 0 0 0 0 1022 1542 1254 1015 1326 1506 1920 2287 2541 2592 2418 2356 2894 3098 2948 2572 2642 3012 2988 3359 3672 3516 2788 2234 2180 1984 1711 1605 1384 1303 1235 1270 1318 1096 1100 1182 1143 894 765 567 585 494 526 466 417 383 385 422 523 545 469 440 482 572 542 492 589
0 0 0 0 0 0 0 0 0 0 0 12 6 15 38 58 58 22 6 24 3 0 20 25 17 20 0 0 0 39 388 391 288 402 1340 1568 2078 2590 2697 2534 2420 2791 3128 3076 2633 2751 3106 3588 3564 3012 2856 2347 1916 1710 1588 1458 1292 1146 1216 1206 1145 1001 1183 1416 1266 1042 660 527 506 530 457 428 406 423 367 298 282 423 464 467 492 498 597 483 483 499
0 0 0 0 0 0 0 0 0 0 0 0 0 0 0 6 0 0 0 0 0 0 92 21 18 18 2 0 0 0 165 808 398 230 636 1620 1789 2627 2769 2650 2524 2715 2942 2844 2669 3076 3594 3447 3318 2934 2636 1913 1712 1707 1568 1280 770 1057 1170 965 1001 1330 1584 1237 971 1212 821 878 806 382 408 518 350 542 360 412 344 382 370 373 340 363 458 431 458 412
0 0 0 0 0 0 0 0 0 0 0 0 0 0 0 0 0 0 0 0 0 34 0 6 107 0 0 0 37 29 2 348 664 329 339 957 1780 2230 2914 2859 2449 2666 2548 2369 2616 2892 3391 3216 3033 3000 2401 1988 1518 1469 1550 1206 964 1116 886 866 1035 1064 767 552 493 256 318 418 332 417 384 408 495 377 305 338 214 209 321 358 392 376 365 446 353 314
0 0 0 0 0 0 0 0 0 0 0 0 0 0 0 0 0 0 1 8 1 2 16 46 4 0 0 9 265 765 450 827 692 815 661 1057 1423 2008 2390 2854 2414 2719 2607 2335 2677 3034 3342 3305 3039 2996 2449 1968 1620 1421 1406 1258 1323 1070 809 984 912 796 646 481 391 310 397 397 410 431 449 540 474 299 246 313 318 323 290 238 255 384 345 332 291 298
0 0 0 0 0 0 0 0 0 0 0 0 0 0 0 5 0 0 53 6 6 20 17 20 0 0 0 961 622 490 550 576 580 879 1003 1456 1740 1900 2370 2477 2455 2692 2394 2269 2684 2950 3278 3435 3050 2891 2588 1998 1566 1618 1372 1518 1332 863 920 1104 882 772 618 466 396 429 375 403 438 560 523 452 363 354 254 356 372 388 302 255 287 358 313 286 283 222
0 0 0 0 0 0 0 0 0 0 1 0 0 0 0 1 0 15 2 2 0 0 0 1 0 0 0 0 0 77 313 351 579 589 475 666 1107 1650 2284 2732 2627 2682 2266 2240 2835 2973 3291 3272 2985 2578 2458 1814 1395 1477 1420 1598 1278 979 1085 1044 968 883 692 683 546 616 526 495 448 650 573 413 318 218 166 79 85 109 218 348 299 289 284 278 235 184
0 0 0 0 0 0 0 0 0 0 0 0 0 0 0 0 2 0 4 20 0 0 9 0 0 0 0 0 45 211 6 22 604 1022 659 638 1011 1656 2267 2634 2960 2825 2246 2429 2719 2628 2784 2798 2578 2099 1901 1535 1353 1446 1572 1740 1344 1064 1257 871 965 901 779 846 784 668 710 668 579 613 592 477 328 180 140 131 83 102 197 324 316 280 221 206 196 213
0 0 0 0 0 0 0 0 0 0 0 0 0 0 0 0 0 6 0 12 19 5 16 8 0 0 0 1 0 0 0 1 182 1494 1132 872 948 1459 2146 2692 3136 2984 2335 2262 2339 2476 2632 2200 2004 1558 1198 1058 1270 1599 1805 1806 1227 1106 1083 835 839 898 777 995 843 746 737 514 461 490 465 355 282 308 206 107 132 206 308 335 332 311 280 245 206 212
0 0 0 0 0 0 0 0 0 0 0 0 0 0 0 2 31 35 8 29 3 12 1 7 0 0 0 0 0 0 0 0 46 1578 1444 1108 1190 1469 2161 2634 3017 3038 2294 2140 2382 2740 2523 1814 1335 949 913 888 1309 1702 1779 1380 968 862 1046 1076 975 889 984 1047 921 883 704 870 599 589 510 354 279 239 204 159 95 121 154 228 276 293 266 248 214 206
0 0 0 0 0 0 0 0 0 0 0 0 0 0 0 6 0 6 36 3 8 5 0 1 0 18 28 3 0 0 0 2 23 428 1585 1385 1397 1679 2240 2676 2978 3071 2388 2195 2268 2317 2046 1412 888 746 922 1054 1398 1835 1376 897 773 500 688 1046 832 1008 1064 1082 1003 917 842 586 732 603 512 392 358 315 196 154 131 162 224 249 269 222 221 368 383 376
0 0 0 0 0 0 0 0 0 0 0 0 0 2 1 6 3 4 29 0 3 0 0 0 0 21 44 78 5 0 8 8 49 269 558 1391 1469 1852 2320 2667 2974 3033 2554 2238 1936 1910 1638 1459 943 799 1044 1216 1602 1491 982 733 687 469 697 767 692 523 746 802 979 1030 918 728 542 536 472 376 250 241 144 77 94 123 161 162 198 216 252 310 292 371
0 0 0 0 0 0 0 0 0 0 0 0 0 3 6 1 2 15 23 19 0 2 4 0 0 0 216 156 74 193 459 200 712 645 626 1072 1701 1990 2424 2695 3034 3109 2822 2241 1972 1890 1670 1640 1228 1218 1396 1580 1664 1410 1114 925 703 734 926 653 634 560 520 292 458 883 978 706 503 546 455 390 283 198 146 99 74 40 2 0 0 35 186 240 234 294
0 0 0 0 0 0 0 0 0 0 0 0 0 1 0 10 6 28 29 15 5 9 0 0 0 2 377 978 795 981 1430 904 1028 1244 1768 1278 1475 1980 2552 2665 3096 3209 3104 2469 2242 2058 2053 2040 1880 1859 2034 2334 2104 1662 1360 1359 1278 986 878 662 516 572 662 598 456 572 904 784 496 451 401 384 377 177 18 1 4 0 0 0 0 2 31 141 144 186
0 0 0 0 0 0 0 0 0 0 0 0 0 0 0 7 16 27 45 27 16 6 18 2 0 0 719 854 406 680 459 126 108 348 1112 1534 1836 2127 2728 2879 3122 3437 3418 3095 2611 2398 2563 2475 2484 2536 2443 2470 2309 1896 1861 2116 1588 1343 1230 856 346 352 564 797 747 708 618 470 376 403 468 400 240 78 29 13 1 0 0 0 0 2 16 50 102 244
0 0 0 0 0 0 0 0 0 0 0 0 0 2 9 7 11 17 17 33 2 74 48 14 3 4 180 600 253 338 402 448 328 354 588 1360 1787 2237 2606 3112 3352 3605 3682 3383 2910 2723 2699 2818 2968 2899 2606 2541 2375 2106 2311 2314 2054 1672 1409 1229 550 395 525 641 763 698 590 281 237 424 451 366 176 62 17 8 2 0 4 2 16 8 0 0 0 32
0 50 0 0 0 0 0 0 0 0 1 0 0 17 12 2 2 14 10 0 9 615 55 17 16 10 2 47 18 34 29 9 1 43 597 1136 1686 2084 2781 3118 3386 3632 3724 3272 3016 2866 2792 3127 3183 2942 2744 2537 2214 2259 2466 2436 2005 1646 1653 1665 883 693 752 933 1007 1017 631 288 129 303 445 237 106 55 21 18 12 9 0 1 0 0 2 0 0 1
127 1 1 14 5 0 0 242 38 7 1 3 4 13 8 2 6 12 4 20 400 76 16 35 308 70 19 22 2 46 46 16 56 302 248 1268 1817 1886 2263 2678 2700 3277 3466 3241 2982 2853 2896 3162 3122 3069 2859 2552 2316 2369 2414 2237 1866 1747 1992 1549 973 942 872 820 1097 1139 884 509 377 420 400 250 74 44 42 34 28 24 37 57 57 58 38 23 3 0
0 0 0 0 0 152 8 18 2 6 0 2 1 4 3 0 5 10 48 360 300 2 0 424 666 133 124 42 0 20 28 15 5 41 218 484 1150 2090 2190 2508 2612 2646 2934 2987 2983 2948 2970 2940 3094 3091 2868 2670 2518 2510 2401 1998 1807 1985 2120 1142 1157 950 925 1031 1196 1196 841 665 631 643 530 278 90 41 32 24 68 111 149 172 156 106 67 40 37 28
142 8 167 8 0 6 0 0 2 0 5 3 4 3 3 1 12 9 26 64 206 142 95 341 529 329 133 71 41 15 2 0 104 358 313 455 422 1298 1946 2184 2318 2454 2476 2697 2836 2849 2926 2956 3134 3068 3001 2720 2575 2508 2348 2178 2418 2364 2048 1332 1237 1310 998 1180 1404 1338 1013 648 696 717 526 331 203 155 113 119 128 205 306 307 190 44 28 24 23 57
30 456 1 25 30 5 0 0 0 0 6 2 0 3 1 0 4 8 8 26 65 55 55 86 136 111 91 99 323 47 0 108 544 323 100 320 404 724 1456 1717 2073 2162 2202 2420 2620 2702 2842 2930 3031 3117 3027 2904 2625 2715 2168 2316 2259 2214 1081 888 869 1088 1066 1196 1500 1406 1109 890 736 685 564 400 307 303 207 207 239 387 577 561 208 72 51 72 195 398
0 1090 82 54 1 57 0 0 0 7 8 10 13 14 2 1 11 26 54 100 87 129 223 145 87 48 20 6 146 149 81 195 98 188 450 740 817 690 1103 1469 1784 2043 2125 2260 2342 2571 2730 2783 2960 2961 2922 2828 2712 2395 2136 2311 2163 2027 1126 906 814 692 922 1236 1355 1161 1184 975 903 873 701 476 398 368 268 275 430 586 716 809 315 146 118 112 191 358
16 304 102 116 18 0 2 4 2 1 8 5 10 10 14 12 7 8 26 92 84 30 41 31 14 9 20 26 0 0 0 0 120 693 691 744 1147 1033 1078 1494 1654 1959 2063 2162 2270 2449 2570 2607 2876 2917 2589 2500 2208 2152 2005 2282 1932 1785 1348 1215 1075 942 942 1314 1162 1042 1076 992 916 932 832 664 447 336 304 421 586 722 910 957 431 194 118 90 136 246
278 204 106 30 28 92 2 7 14 8 0 1 520 17 10 1 3 16 17 110 98 26 7 2 2 3 0 0 0 0 0 55 346 716 1260 596 457 1342 1306 1166 1494 1792 1980 2014 2171 2316 2454 2579 2722 2600 2474 2166 2042 1634 1440 1342 1524 1564 1367 1182 1126 1027 1313 1314 996 893 962 1059 1058 986 884 726 502 449 444 569 750 908 1107 929 296 188 87 66 188 329
104 160 112 192 58 78 160 121 43 0 3 788 101 206 188 22 1 20 0 6 12 12 2 0 11 20 3 0 0 0 234 642 676 812 745 696 701 665 1072 1293 1464 1735 1888 1932 2054 2134 2374 2572 2806 2294 1982 2015 1206 1118 1569 1793 2032 1747 1288 999 868 1132 1612 1327 1029 964 1031 1027 1052 1064 939 752 573 643 690 753 965 1235 1068 574 225 244 185 156 165 264
189 111 238 80 26 142 125 84 2 6 451 62 120 130 130 97 215 54 22 28 16 2 33 54 16 0 0 0 0 384 879 719 622 889 1124 1101 874 939 834 1096 1404 1508 1720 1778 2022 2116 2491 2572 2332 2244 2244 1599 1374 1425 1521 1966 1430 912 1018 848 896 1364 1194 1082 980 888 1078 1008 995 949 856 724 648 760 952 1140 1247 1235 828 268 152 238 324 494 414 423
274 190 112 96 180 46 26 4 10 254 116 140 72 100 23 102 57 21 10 43 0 19 22 24 18 7 0 0 50 632 821 575 749 839 1646 1320 1075 824 861 1155 1010 1355 1532 1749 1858 2176 2748 2492 2334 2270 2590 2344 2146 1965 1182 1320 1153 991 918 857 914 1044 888 660 886 1001 981 1071 906 742 662 657 663 699 757 881 970 1072 695 158 155 208 341 545 445 316
305 376 194 16 110 102 53 52 37 35 60 103 136 136 53 102 87 32 0 11 0 4 1 4 16 9 0 0 688 886 958 800 44 0 1323 760 686 869 783 988 976 1248 1423 1602 1951 2521 2721 2434 2296 2706 2133 2284 2325 1710 1594 1454 1164 1272 1246 990 902 764 625 630 881 922 894 920 796 716 720 754 702 661 614 768 884 808 511 132 140 317 544 498 421 310
313 362 875 100 195 76 39 25 0 0 0 68 96 210 163 191 25 24 0 0 0 0 0 0 0 0 0 2 1646 1044 437 8 0 215 504 994 682 707 924 956 1060 1230 1554 1830 2053 2541 2402 2484 2534 2337 2550 2612 2290 1908 2064 2112 1358 1408 1528 1288 995 695 482 650 834 791 802 858 702 753 818 734 672 725 698 741 664 579 405 293 376 431 882 667 290 342
117 56 157 94 26 34 96 27 15 0 13 145 232 6 2 53 18 1 0 0 0 0 0 4 0 0 0 86 1219 905 182 0 2 890 836 972 1002 793 1266 1380 1397 1537 1815 2040 2180 2569 2661 2676 2686 2881 2749 2556 2418 2331 2476 2449 1829 1468 1334 1108 1068 739 590 737 930 811 726 632 692 889 966 833 865 920 758 648 699 660 734 1079 775 735 850 566 259 295
208 220 149 96 4 36 47 30 0 10 209 158 76 0 0 1 2 1 0 0 2 0 0 0 0 0 21 1122 996 245 524 766 1684 929 1172 836 937 1072 1242 1432 1454 1801 2022 1936 1916 1898 2466 2717 2793 2671 2606 2532 2774 2470 2628 2538 2272 1848 1703 1539 1362 962 798 1005 1044 887 914 1082 1113 1156 1179 969 806 824 688 694 778 1080 1121 851 567 497 630 474 476 661
271 240 170 165 67 50 91 62 12 29 414 15 0 0 0 0 0 0 908 247 177 11 154 60 2 13 96 816 920 272 421 1311 942 864 1090 1020 1406 1426 1304 1352 1479 1501 1673 1604 1848 1984 2492 2345 2518 2626 2354 2727 2905 2835 3017 3202 2982 2628 2333 2036 1817 1484 996 1301 1165 1326 1815 1688 1528 1301 1057 928 822 831 790 812 1564 1549 1122 784 664 454 490 560 770 866
124 140 124 91 88 62 212 214 52 0 726 0 23 37 0 2 0 586 574 532 202 412 137 324 310 189 467 874 1056 1041 1184 600 596 1035 1155 1394 1561 1431 1300 1352 1630 1642 1658 1828 1971 1933 1931 2248 2234 2286 2327 2057 2370 2913 3117 3078 3001 2819 2632 2506 2432 1719 1326 1689 2014 2594 2242 1643 1302 1170 1060 923 864 952 1154 1456 1540 1109 900 985 754 561 606 729 863 789
722 135 51 18 55 150 136 126 72 226 7 5 46 154 196 51 886 880 503 218 266 206 387 500 330 624 1235 1606 1431 1413 1079 1392 1653 1840 1848 1650 1561 1532 1674 1744 1829 1752 1700 1366 1370 1735 1476 2016 2349 2339 2284 1582 1877 2675 2804 2695 2822 2774 2656 2697 2498 2437 2275 2846 3036 2418 1594 1203 1090 876 657 722 988 1316 1344 1332 1158 1114 958 990 978 731 860 825 760 724
532 527 458 281 175 132 85 140 340 253 179 10 48 95 86 76 45 78 196 168 161 170 287 543 600 721 1848 1513 1630 1428 1162 1232 1553 1804 2070 1904 1879 1799 2088 1959 1812 1757 1571 1407 986 1568 1574 1636 2161 2314 2431 2745 2967 2807 2662 2510 2536 2515 2466 2560 2701 3011 3168 2940 2244 1492 1176 1022 881 784 777 845 837 978 1030 1159 1062 1053 882 725 704 688 848 763 638 770
8 152 158 260 214 219 28 250 4 20 70 82 1 81 24 16 14 24 146 314 354 290 306 396 453 529 1570 1464 1206 1224 816 1448 1894 1882 1922 1916 2110 2362 2226 2114 2102 1914 1934 2038 2138 1866 1958 2107 2338 2485 2694 2819 2719 2585 2411 2430 2242 2247 2379 2475 2759 3156 2560 2029 1528 1169 978 877 773 795 830 747 632 880 1099 1044 733 715 698 704 723 605 636 708 624 712
8 0 79 48 217 0 195 82 102 9 10 53 34 2 0 0 12 34 251 494 604 612 561 644 807 990 1362 1387 1227 1102 1096 1450 1701 2042 2334 2237 2103 2103 1956 1996 2113 1930 1860 1710 2123 2027 1717 1716 1518 1630 1662 1752 2293 2214 1766 2014 2062 2091 2100 2341 2745 2108 1802 1438 1207 1025 978 846 690 928 798 564 310 245 527 939 846 639 568 589 556 520 607 560 502 600
34 5 44 89 87 37 232 90 55 2 22 26 4 0 0 0 0 58 49 280 678 692 713 844 1109 1168 1281 1273 1250 1106 1287 1124 1377 1897 1836 1894 1933 1978 2072 2057 2091 1858 2015 2406 2410 1722 1665 1672 1556 1521 1832 2134 2372 2368 2009 1515 1742 2010 2118 2116 1208 1222 1477 1241 947 641 967 940 747 650 619 577 184 198 257 422 500 361 343 610 642 583 548 608 772 867
12 0 30 84 21 54 12 3 1 0 39 162 0 0 0 0 0 25 151 177 400 504 629 808 895 1254 1201 1087 1315 1456 1038 1178 1354 1015 725 1222 1415 1350 1517 1668 2061 2375 2180 2224 2036 2234 2645 2759 2566 2492 2051 2315 1950 1681 1711 1765 1559 1629 2073 1470 1050 1527 839 864 841 746 911 707 555 567 449 276 392 446 407 413 473 441 416 1038 1033 748 903 897 392 348
2 65 65 26 29 49 78 30 0 6 39 46 16 0 0 0 2 62 180 207 354 516 770 909 960 1156 952 1236 1412 1143 1182 1508 1135 738 478 797 1088 1565 1814 2142 2164 2122 2075 2236 2542 2567 2366 2160 2096 1998 1905 1947 1543 1511 1598 1692 1617 1196 1004 1102 1345 1248 912 1212 629 560 527 558 450 306 303 390 311 442 463 330 197 394 548 144 0 0 652 356 188 115
24 162 98 132 42 20 2 2 5 0 0 0 0 0 0 0 2 4 84 175 270 559 818 971 1134 1085 1250 1167 846 868 1219 1341 1152 763 600 878 1908 2238 2110 1881 1698 1662 1821 1868 2106 1944 1927 1770 1556 1802 1708 1416 1316 1356 1235 1277 1142 1216 934 1178 1160 1008 1198 1158 790 562 410 418 346 288 480 372 329 385 622 543 308 198 292 641 0 0 16 24 0 0
Wind_Speed
nan nan nan nan nan nan nan nan nan nan nan nan nan nan nan nan nan nan nan 8 8 3 0 1 3 8 10 15 16 18 18 16 15 15 13 13 12 11 9 10 10 10 11 11 11 11 12 14 14 13 14 14 15 15 15 14 13 13 12 13 14 16 17 16 17 17 16 16 16 18 18 19 22 23 23 24 24 25 25 27 27 27 27 27 26 26
nan nan nan nan nan nan nan nan nan nan nan nan nan nan nan nan nan nan 9 10 8 1 8 2 1 6 8 11 14 16 18 18 18 16 14 14 13 11 10 10 10 10 9 9 10 11 13 13 14 15 14 16 16 15 14 13 12 11 11 11 12 14 16 16 17 18 18 17 18 19 20 20 22 24 25 24 24 24 26 26 27 28 28 27 26 26
nan nan nan nan nan nan nan nan nan nan nan nan nan nan nan nan nan nan 10 10 7 1 6 2 1 4 6 8 11 15 16 15 17 16 15 14 14 12 10 10 11 10 10 9 9 11 11 13 14 13 14 14 14 14 14 13 12 12 11 11 11 12 14 17 17 18 18 20 21 21 22 22 23 25 24 23 24 25 26 27 27 26 26 25 25 24
nan nan nan nan nan nan nan nan nan nan nan nan nan nan nan nan nan nan 7 7 6 3 4 3 2 4 3 4 10 11 14 16 16 16 15 13 12 12 11 11 11 13 12 11 11 12 11 12 12 13 13 13 13 13 14 14 13 13 13 13 13 13 14 16 17 18 22 23 24 24 24 24 24 24 26 26 27 27 27 27 27 26 25 25 24 24
nan nan nan nan nan nan nan nan nan nan nan nan nan nan nan nan nan nan 9 6 8 6 4 7 2 4 2 6 8 11 11 14 18 17 15 14 11 9 10 10 12 13 13 12 12 11 11 11 12 14 14 14 15 14 14 15 15 15 17 17 17 17 18 18 20 22 23 25 25 24 25 25 25 26 25 25 25 25 27 26 29 27 26 25 24 24
nan nan nan nan nan nan nan nan nan nan nan nan nan nan nan nan nan nan 16 12 10 10 7 7 4 3 4 6 8 12 13 15 17 17 16 16 14 12 12 12 12 13 14 12 13 13 12 12 13 14 15 15 16 16 15 16 18 19 20 20 20 19 19 21 22 22 23 24 24 25 25 24 24 24 24 24 23 23 25 25 26 27 27 26 25 25
nan nan nan nan nan nan nan nan nan nan nan nan nan nan nan nan nan nan 16 nan nan nan 12 5 nan nan 7 6 7 10 14 18 18 16 16 17 15 15 13 13 14 15 15 13 13 14 14 14 14 15 15 16 17 18 19 19 21 23 23 23 23 22 22 22 22 22 23 25 25 25 25 25 24 24 24 24 23 24 24 25 25 26 26 26 25 24
nan nan nan nan nan nan nan nan nan nan nan nan nan nan nan nan nan 13 10 nan nan nan 15 6 7 nan nan 6 6 10 15 19 20 17 15 16 16 16 16 16 16 16 16 16 15 16 16 16 16 17 17 17 19 21 22 23 24 26 26 26 25 24 24 23 23 23 23 24 25 26 26 26 25 25 24 24 24 24 25 24 25 26 27 27 27 27
nan nan nan nan nan nan nan nan nan nan nan nan nan nan nan nan nan nan nan nan 21 14 12 10 10 6 nan 11 8 11 14 18 20 20 17 16 16 17 18 18 18 17 18 17 17 19 19 19 18 19 20 20 22 22 23 25 26 27 28 28 28 27 26 25 25 25 25 27 28 28 27 27 27 26 26 24 26 25 25 25 26 26 26 27 28 29
nan nan nan nan nan nan nan nan nan nan nan nan nan nan nan nan nan nan nan nan nan nan nan 10 12 nan nan nan 11 10 12 16 18 20 19 18 18 19 19 20 19 19 19 18 19 21 21 21 21 22 23 24 23 23 25 26 27 28 28 29 29 29 27 27 27 27 28 29 29 30 29 29 29 28 27 26 27 26 27 26 27 28 28 29 30 30
nan nan nan nan nan nan nan nan nan nan nan nan nan nan nan nan nan nan nan nan nan nan nan nan nan nan nan nan nan 10 10 13 13 16 16 16 17 19 19 21 21 21 21 20 21 22 22 23 24 25 26 26 26 25 27 27 27 28 29 30 30 30 29 29 28 28 28 28 29 29 29 28 28 28 28 27 27 28 27 28 28 30 31 32 32 32
nan nan nan nan nan nan nan nan nan nan nan nan nan nan nan nan nan nan nan nan nan nan nan nan nan nan nan nan nan nan 7 11 12 14 18 17 17 18 20 21 22 23 23 23 23 24 25 26 26 26 28 29 29 29 28 28 29 29 29 31 32 32 31 30 28 28 27 27 28 28 27 27 27 27 27 26 26 27 28 29 30 32 32 33 34 35
nan nan nan nan nan nan nan nan nan nan nan nan nan nan nan nan nan nan nan nan nan nan nan nan nan nan nan nan nan nan 13 12 14 11 12 16 16 19 20 22 23 25 26 25 25 26 27 27 28 29 30 31 31 31 31 31 30 30 31 33 33 33 33 31 29 28 27 27 28 27 27 27 27 26 26 27 27 28 29 30 31 31 32 34 34 36
nan nan nan nan nan nan nan nan nan nan nan nan nan nan nan nan nan nan nan nan nan nan nan nan 17 nan nan nan nan nan nan 11 14 13 10 12 14 17 20 22 24 25 26 26 27 26 27 27 28 30 31 31 32 33 33 33 32 31 31 33 34 35 34 32 30 28 27 28 28 29 28 28 28 27 27 28 28 29 30 31 32 32 33 33 34 35
nan nan nan nan nan nan nan nan nan nan nan nan nan nan nan nan nan nan nan nan nan nan nan nan nan nan nan nan 17 16 20 16 14 13 13 13 13 15 19 22 25 27 28 28 28 29 30 30 31 32 32 32 33 35 35 34 34 33 32 33 34 35 34 32 31 29 28 28 29 30 30 30 30 29 29 29 30 30 31 32 32 33 33 34 34 35
nan nan nan nan nan nan nan nan nan nan nan nan nan nan nan nan nan nan nan nan nan nan nan nan nan nan nan 21 17 15 17 16 14 14 14 14 16 17 20 22 24 29 30 30 30 31 32 33 33 33 33 33 34 36 35 37 36 34 34 34 34 35 35 33 32 31 30 29 30 31 31 31 31 31 30 30 31 31 32 32 32 33 33 34 34 35
nan nan nan nan nan nan nan nan nan nan nan nan nan nan nan nan nan nan nan nan nan nan nan nan nan nan nan nan nan nan 10 10 13 13 14 14 15 16 18 21 24 29 32 32 32 33 35 35 34 33 34 33 35 36 36 38 37 36 35 35 35 35 35 34 33 33 32 31 31 32 33 32 32 31 31 nan nan 30 32 32 32 33 33 34 35 36
nan nan nan nan nan nan nan nan nan nan nan nan nan nan nan nan nan nan nan nan nan nan nan nan nan nan nan nan nan 17 nan nan 12 12 13 15 16 16 16 19 24 28 33 33 33 34 36 36 35 33 33 34 35 36 37 39 38 36 35 36 36 36 35 34 34 34 33 32 32 33 33 34 33 32 32 32 nan 31 32 32 33 33 34 35 35 36
nan nan nan nan nan nan nan nan nan nan nan nan nan nan nan nan nan nan nan nan nan nan nan nan nan nan nan nan nan nan nan nan 14 16 16 17 17 17 18 20 23 28 33 33 34 35 35 35 35 34 34 35 36 36 38 39 38 36 36 36 36 36 34 34 34 34 34 33 33 33 34 35 35 34 32 32 32 32 32 32 33 33 33 34 35 36
nan nan nan nan nan nan nan nan nan nan nan nan nan nan nan nan nan nan nan nan nan nan nan nan nan nan nan nan nan nan nan nan nan 20 17 18 18 18 19 22 25 28 32 33 34 35 35 36 36 35 35 36 37 37 38 39 38 37 37 38 37 37 35 34 34 35 34 34 34 34 35 36 36 35 33 33 nan 33 33 33 33 33 34 35 35 36
nan nan nan nan nan nan nan nan nan nan nan nan nan nan nan nan nan nan nan nan nan nan nan nan nan nan nan nan nan nan nan nan nan 19 19 18 19 20 22 23 25 27 30 32 33 34 35 36 36 35 35 35 37 37 37 38 38 36 37 38 38 38 36 35 35 35 35 35 35 34 34 35 36 35 33 33 33 33 34 35 35 35 35 36 36 37
nan nan nan nan nan nan nan nan nan nan nan nan nan nan nan nan nan nan nan nan nan nan nan nan nan nan nan nan nan nan nan nan nan 16 18 19 19 21 23 25 26 27 29 32 32 34 35 36 36 35 35 35 37 37 37 38 38 37 37 37 37 37 36 34 35 35 35 36 35 35 35 35 35 34 34 nan nan 33 35 36 36 36 36 35 37 38
nan nan nan nan nan nan nan nan nan nan nan nan nan nan nan nan nan nan nan nan nan nan nan nan nan nan 20 16 nan 16 17 17 18 15 15 18 20 22 23 24 26 27 29 32 33 34 36 37 37 36 37 37 38 37 37 38 38 38 37 36 37 37 35 33 35 36 36 36 36 36 36 36 36 35 34 nan nan nan nan nan nan nan 37 36 36 37
nan nan nan nan nan nan nan nan nan nan nan nan nan nan nan nan nan nan nan nan nan nan nan nan nan nan 20 17 15 17 16 15 16 15 13 15 19 21 24 25 28 28 27 29 32 34 36 38 39 38 38 38 38 37 38 39 39 39 37 38 38 37 36 34 34 36 37 37 37 37 37 37 37 35 nan nan nan nan nan nan nan nan nan 37 37 37
nan nan nan nan nan nan nan nan nan nan nan nan nan nan nan nan nan nan nan nan nan nan nan nan nan nan 22 17 16 19 17 15 16 16 16 14 16 20 24 26 28 30 31 32 33 35 37 39 40 39 39 38 38 38 38 40 41 40 39 39 37 37 38 36 35 36 36 37 37 38 38 38 38 nan nan nan nan nan nan nan nan nan nan nan 37 38
nan nan nan nan nan nan nan nan nan nan nan nan nan nan nan nan nan nan nan nan nan nan nan nan nan nan 25 18 19 21 19 17 16 16 17 19 18 20 25 27 28 30 31 34 36 37 38 39 39 40 39 38 39 39 39 40 42 42 41 40 39 39 38 37 36 36 36 36 37 38 38 39 38 nan nan nan nan nan nan nan nan nan nan nan nan nan
nan nan nan nan nan nan nan nan nan nan nan nan nan nan nan nan nan nan nan nan nan 22 nan nan nan nan nan nan nan nan nan nan nan nan 19 20 23 24 25 27 29 29 30 33 34 35 37 38 40 42 41 40 41 40 40 41 43 43 43 41 41 40 39 38 37 37 37 37 37 39 39 39 39 nan nan nan nan nan nan nan nan nan nan nan nan nan
29 nan nan nan nan nan nan 30 nan nan nan nan nan nan nan nan nan nan nan nan 25 nan nan nan 24 nan nan nan nan nan nan nan nan 17 19 22 24 25 28 29 30 30 31 33 34 36 36 37 39 42 42 42 42 41 41 42 43 44 43 42 42 41 40 39 38 38 39 39 39 40 40 40 nan nan nan nan nan nan nan nan nan nan nan nan nan nan
nan nan nan nan nan 24 nan nan nan nan nan nan nan nan nan nan nan nan nan 24 27 nan nan 32 29 21 10 nan nan nan nan nan nan nan 21 22 23 26 28 29 31 32 34 34 35 37 38 39 40 41 43 43 44 42 43 44 45 44 43 42 42 40 40 39 39 39 40 41 41 42 42 41 nan nan nan nan nan 41 41 42 42 41 nan nan nan nan
27 nan 29 nan nan nan nan nan nan nan nan nan nan nan nan nan nan nan nan nan 23 24 nan 31 33 23 14 nan nan nan nan nan 21 21 22 22 22 25 27 28 29 32 34 36 37 38 39 41 43 43 44 45 45 44 44 45 46 45 44 43 42 41 40 39 40 40 42 42 43 43 43 43 43 43 43 42 41 41 42 43 42 nan nan nan nan nan
nan 33 nan nan nan nan nan nan nan nan nan nan nan nan nan nan nan nan nan nan nan nan nan nan 28 23 nan nan 25 nan nan 26 25 21 nan 21 23 24 24 26 28 30 32 34 36 38 40 42 44 46 46 46 46 46 45 45 46 45 43 42 42 42 40 39 40 42 43 44 44 44 44 44 43 43 42 42 42 42 43 43 43 nan nan nan 38 38
nan 34 nan nan nan nan nan nan nan nan nan nan nan nan nan nan nan nan nan 35 nan 32 33 31 nan nan nan nan 30 26 nan 26 nan 21 21 23 24 24 23 24 27 28 31 33 36 39 41 42 44 46 47 48 47 45 45 46 46 45 43 43 42 41 40 40 41 44 45 45 45 45 44 44 43 42 41 41 42 43 43 44 43 41 39 38 37 38
nan 32 30 28 nan nan nan nan nan nan nan nan nan nan nan nan nan nan nan nan nan nan nan nan nan nan nan nan nan nan nan nan 21 22 22 23 25 24 24 26 27 29 31 34 37 39 40 42 44 46 48 48 46 43 46 47 46 45 45 44 43 41 39 41 43 45 46 46 45 45 44 43 42 41 41 42 42 43 43 43 42 40 38 nan 37 37
33 29 30 nan nan nan nan nan nan nan nan nan 39 nan nan nan nan nan nan 35 nan nan nan nan nan nan nan nan nan nan nan nan 23 22 25 25 25 27 26 26 28 30 32 33 35 37 38 39 43 46 49 48 46 46 46 45 44 44 44 43 43 42 42 43 45 46 47 46 46 45 44 43 42 41 42 43 43 44 44 44 41 39 nan nan 38 37
29 30 31 35 nan nan 39 31 nan nan nan 44 41 41 36 nan nan nan nan nan nan nan nan nan nan nan nan nan nan nan 29 26 23 20 21 25 26 27 27 28 29 31 32 33 34 35 38 40 44 47 47 46 46 45 44 42 42 44 43 43 43 44 45 46 47 47 47 47 47 46 45 43 42 42 42 43 44 45 44 42 41 40 39 38 37 36
30 28 35 nan nan 40 33 nan nan nan 44 nan 42 40 39 nan 39 nan nan nan nan nan nan nan nan nan nan nan nan 35 32 26 22 21 22 23 25 26 27 28 30 31 31 32 34 35 39 41 44 46 46 45 44 43 42 41 42 42 43 44 45 46 47 48 49 48 48 48 47 46 45 44 43 43 43 44 45 45 44 42 41 40 40 38 37 37
31 32 32 nan 39 nan nan nan nan 46 41 44 nan 36 nan 37 nan nan nan nan nan nan nan nan nan nan nan nan nan 34 32 26 22 23 28 27 27 25 26 28 30 31 31 33 34 36 38 41 43 45 44 43 40 39 39 40 42 42 43 45 45 46 48 49 50 50 49 48 47 45 44 44 43 42 43 44 45 44 43 41 41 41 40 38 36 34
36 32 36 nan 37 31 nan nan nan nan nan 36 39 39 nan 39 nan nan nan nan nan nan nan nan nan nan nan nan 35 34 32 25 nan nan 33 30 30 29 28 29 31 32 33 34 36 38 39 40 41 42 41 41 39 39 39 41 43 43 43 44 45 47 49 50 50 50 48 47 46 45 44 44 43 43 43 44 43 43 42 41 41 38 36 35 33 30
38 38 40 34 38 nan nan nan nan nan nan nan nan 42 37 40 nan nan nan nan nan nan nan nan nan nan nan nan 36 34 29 nan nan 35 32 31 31 32 32 32 33 35 35 37 38 40 41 40 40 39 38 39 40 40 41 42 43 44 43 44 45 47 49 50 49 48 47 47 46 45 44 43 43 43 43 43 42 42 41 41 39 38 36 34 33 31
39 nan 39 nan nan nan nan nan nan nan nan 45 50 nan nan nan nan nan nan nan nan nan nan nan nan nan nan nan 34 31 29 nan nan 36 34 34 33 34 34 35 35 37 37 38 39 40 42 41 40 38 39 40 39 40 41 43 44 43 43 45 45 46 48 49 48 47 46 46 46 46 44 44 44 44 43 41 41 41 43 48 46 43 42 40 37 34
40 40 39 nan nan nan nan nan nan nan 45 49 nan nan nan nan nan nan nan nan nan nan nan nan nan nan nan 32 33 29 31 29 36 36 36 38 38 37 36 36 37 37 38 38 40 41 41 40 39 39 40 40 39 39 40 42 43 43 44 45 45 45 46 48 47 47 46 46 45 45 44 43 43 43 42 41 41 43 47 47 45 45 44 40 37 33
36 38 38 37 nan nan nan nan nan nan 49 nan nan nan nan nan nan nan 42 41 40 nan 37 nan nan nan nan 30 31 28 32 37 37 37 38 38 39 39 38 39 39 39 39 40 43 41 41 40 39 37 37 38 38 38 40 42 43 44 45 46 44 45 47 48 48 48 48 46 44 44 43 42 42 42 41 42 45 46 47 47 46 44 42 38 35 32
34 32 32 nan nan nan 37 34 nan nan 47 nan nan nan nan nan nan 43 39 39 41 38 35 32 28 26 26 28 29 30 32 36 38 38 39 41 40 40 39 41 41 41 42 42 42 41 40 40 38 36 35 37 39 41 41 43 44 44 46 45 45 45 46 48 49 50 48 46 45 44 43 42 42 42 43 44 46 46 47 47 45 42 40 36 33 31
42 28 nan nan nan 30 32 34 nan 46 nan nan nan 36 41 nan 42 39 38 34 35 34 33 32 30 27 27 26 29 33 34 37 38 40 41 42 42 42 42 41 41 42 41 40 41 41 39 37 36 36 35 35 38 41 42 43 44 44 45 44 45 46 47 49 51 51 49 46 44 43 42 42 42 43 44 44 45 46 45 44 43 41 38 34 31 29
42 39 40 37 41 31 nan 40 47 41 41 nan nan nan nan nan nan nan 34 32 29 29 32 31 29 28 30 30 32 35 37 37 39 41 42 43 43 43 42 42 42 42 42 41 41 42 40 38 37 36 37 40 42 42 42 43 43 44 43 43 45 47 48 49 50 50 47 45 44 43 43 42 42 42 43 44 46 46 45 43 42 39 37 33 30 29
nan 39 37 37 42 40 nan 45 nan nan nan nan nan nan nan nan nan nan 36 33 31 28 30 29 29 29 33 35 35 38 39 41 43 43 45 44 44 43 43 43 43 43 43 43 43 42 40 39 38 38 38 40 40 41 42 42 43 42 42 43 46 49 50 50 51 48 45 44 44 44 43 42 42 42 43 43 44 45 44 42 41 38 36 32 29 28
nan nan nan nan 44 nan 41 nan 42 nan nan nan nan nan nan nan nan nan 36 33 31 31 30 31 32 33 34 38 38 41 43 43 44 45 45 44 44 44 43 44 44 43 43 42 43 43 41 38 37 37 37 37 40 41 42 43 43 42 43 44 47 49 52 52 50 47 46 45 45 44 43 42 41 40 42 43 43 44 44 42 40 37 35 32 29 28
nan nan nan nan nan nan 45 nan nan nan nan nan nan nan nan nan nan nan nan 34 33 32 33 33 35 37 40 41 42 43 44 44 45 45 44 44 44 44 45 45 45 45 44 44 44 42 41 40 39 39 40 42 44 44 43 42 43 44 44 47 46 50 53 51 49 46 45 46 44 43 43 42 44 41 40 42 42 41 42 41 39 37 34 31 30 28
nan nan nan nan nan nan nan nan nan nan nan 47 nan nan nan nan nan nan 37 35 34 33 34 36 37 40 41 42 43 42 44 44 43 43 44 45 45 45 45 46 46 46 46 46 45 45 45 45 45 46 46 47 47 45 45 45 43 45 49 48 50 52 50 48 48 46 45 44 43 42 41 38 39 39 40 40 42 41 40 39 37 35 36 40 34 33
nan nan nan nan nan nan nan nan nan nan nan nan nan nan nan nan nan nan 38 37 37 36 37 38 39 40 41 42 42 41 42 41 40 38 41 44 45 47 48 48 48 49 49 48 48 48 49 49 49 49 49 48 47 47 47 46 46 45 45 49 50 50 47 48 45 43 42 41 40 38 38 38 36 37 38 36 37 39 47 46 nan nan 35 40 40 38
nan 42 nan 35 nan nan nan nan nan nan nan nan nan nan nan nan nan nan nan 40 38 37 37 36 39 43 41 41 39 39 40 39 37 37 41 46 48 49 49 50 49 49 49 49 50 50 50 50 50 50 50 49 48 48 47 47 48 48 48 50 49 48 46 45 43 41 38 37 34 36 36 34 33 37 38 37 37 37 39 45 nan nan nan nan nan nan
Wind_Direction
nan nan nan nan nan nan nan nan nan nan nan nan nan nan nan nan nan nan nan 285 318 311 170 260 258 314 341 344 341 346 346 352 355 347 356 353 345 340 351 3 8 4 12 348 359 1 3 1 360 3 356 354 346 342 340 340 340 339 336 331 329 322 322 322 319 319 319 317 317 319 321 318 312 310 309 311 311 312 312 313 314 317 318 319 321 320
nan nan nan nan nan nan nan nan nan nan nan nan nan nan nan nan nan nan 279 279 298 321 275 220 243 314 337 344 340 341 345 348 345 344 349 349 347 338 344 355 357 357 351 347 358 2 2 0 356 356 352 348 348 344 343 340 335 333 333 331 322 318 318 318 317 315 320 323 321 318 313 307 305 305 309 307 309 306 306 309 312 315 318 320 320 320
nan nan nan nan nan nan nan nan nan nan nan nan nan nan nan nan nan nan 277 298 294 280 248 310 55 306 331 336 335 341 343 334 334 335 335 339 342 334 339 350 347 348 348 352 354 348 356 354 352 352 349 346 348 342 343 339 337 335 333 327 321 316 316 314 318 325 324 321 320 319 310 310 308 311 307 307 306 310 311 311 312 314 316 318 319 320
nan nan nan nan nan nan nan nan nan nan nan nan nan nan nan nan nan nan 282 322 323 311 243 324 58 268 305 323 342 340 333 320 316 318 321 324 335 338 338 339 343 345 342 343 344 345 347 346 350 351 350 347 341 334 336 336 335 332 332 326 324 318 315 316 316 319 320 320 319 317 315 312 310 308 312 315 317 315 315 316 317 318 319 320 321 320
nan nan nan nan nan nan nan nan nan nan nan nan nan nan nan nan nan nan 271 299 295 288 211 306 353 264 334 349 346 336 325 321 318 312 316 319 326 330 321 329 335 341 339 340 340 339 338 345 349 348 348 345 339 336 327 324 323 327 327 326 324 319 313 311 316 320 320 320 317 313 313 312 310 313 309 309 311 314 314 318 318 318 320 322 322 322
nan nan nan nan nan nan nan nan nan nan nan nan nan nan nan nan nan nan 278 288 280 283 298 317 283 246 290 5 354 331 336 336 320 316 316 318 324 321 325 326 325 333 330 336 336 337 339 341 338 340 341 344 340 333 323 318 316 316 318 322 323 318 314 310 309 312 314 312 310 309 307 306 306 306 307 307 309 312 314 317 318 320 322 321 323 324
nan nan nan nan nan nan nan nan nan nan nan nan nan nan nan nan nan nan 302 nan nan nan 290 320 nan nan 285 333 346 340 349 341 325 320 314 313 319 324 324 325 328 331 326 328 330 332 335 335 336 338 338 340 337 328 323 319 317 317 318 318 317 314 312 309 307 309 312 312 311 307 307 307 308 309 309 311 311 312 315 318 320 320 320 319 319 320
nan nan nan nan nan nan nan nan nan nan nan nan nan nan nan nan nan 298 306 nan nan nan 267 300 270 nan nan 272 339 346 349 344 335 327 319 313 321 326 323 323 326 331 329 323 325 328 331 332 334 336 332 335 331 323 322 322 321 321 322 321 319 317 314 311 310 308 308 310 311 312 313 313 313 312 313 314 313 314 314 317 317 317 317 316 315 315
nan nan nan nan nan nan nan nan nan nan nan nan nan nan nan nan nan nan nan nan 256 263 263 267 268 249 nan 253 278 331 348 347 344 338 331 324 323 325 325 324 327 330 328 325 322 325 326 326 326 326 329 327 322 324 324 322 322 323 323 321 319 317 316 314 311 310 311 313 315 316 317 319 318 317 316 315 313 313 314 315 314 314 313 313 312 311
nan nan nan nan nan nan nan nan nan nan nan nan nan nan nan nan nan nan nan nan nan nan nan 269 266 nan nan nan 265 310 348 348 349 348 341 331 327 324 324 324 326 322 321 324 322 319 321 321 322 323 323 321 323 323 322 322 323 324 322 321 320 318 319 318 317 316 315 315 316 318 319 319 318 316 315 315 315 317 316 317 315 315 314 312 311 311
nan nan nan nan nan nan nan nan nan nan nan nan nan nan nan nan nan nan nan nan nan nan nan nan nan nan nan nan nan 295 320 338 334 336 335 329 326 324 321 322 320 317 316 317 318 315 315 316 316 316 320 319 318 320 321 323 325 324 323 322 323 321 320 322 322 320 316 314 314 317 317 316 314 314 315 316 317 317 317 316 315 315 315 315 313 312
nan nan nan nan nan nan nan nan nan nan nan nan nan nan nan nan nan nan nan nan nan nan nan nan nan nan nan nan nan nan 299 314 320 322 333 337 329 318 315 315 316 315 313 313 313 312 311 307 312 316 316 317 318 318 322 323 324 324 325 325 324 324 324 325 323 320 314 312 313 315 316 313 312 313 314 314 315 314 315 315 316 316 318 316 315 314
nan nan nan nan nan nan nan nan nan nan nan nan nan nan nan nan nan nan nan nan nan nan nan nan nan nan nan nan nan nan 286 294 297 301 313 327 327 318 315 314 308 309 311 310 309 308 309 310 310 314 314 315 316 318 322 323 324 325 326 327 327 326 326 324 324 320 316 313 313 315 315 314 312 313 313 314 315 314 315 315 317 318 317 316 315 313
nan nan nan nan nan nan nan nan nan nan nan nan nan nan nan nan nan nan nan nan nan nan nan nan 277 nan nan nan nan nan nan 288 299 303 296 298 314 314 307 304 303 305 307 306 305 307 307 308 309 311 312 313 314 317 320 322 321 323 325 326 326 325 325 324 324 320 316 312 312 315 316 314 314 313 314 315 315 314 316 317 319 319 317 316 315 313
nan nan nan nan nan nan nan nan nan nan nan nan nan nan nan nan nan nan nan nan nan nan nan nan nan nan nan nan 264 254 251 256 284 293 286 280 280 294 300 298 302 303 303 300 302 305 306 307 310 309 310 311 312 316 318 318 319 321 322 323 324 323 325 325 324 321 317 312 313 316 317 316 314 314 314 315 315 316 317 318 320 320 318 317 313 313
nan nan nan nan nan nan nan nan nan nan nan nan nan nan nan nan nan nan nan nan nan nan nan nan nan nan nan 277 279 277 277 281 288 296 295 290 277 277 289 298 298 297 299 299 301 304 306 307 308 307 308 309 312 315 316 317 318 320 321 321 321 323 324 325 325 322 317 314 314 318 318 316 314 314 314 315 316 318 319 320 321 320 319 316 314 313
nan nan nan nan nan nan nan nan nan nan nan nan nan nan nan nan nan nan nan nan nan nan nan nan nan nan nan nan nan nan 295 300 306 308 307 303 295 288 288 292 296 294 295 297 299 302 305 305 307 306 308 309 312 314 314 315 318 320 319 319 319 320 322 324 325 322 318 315 315 317 316 315 314 313 313 nan nan 315 316 319 319 319 317 316 315 313
nan nan nan nan nan nan nan nan nan nan nan nan nan nan nan nan nan nan nan nan nan nan nan nan nan nan nan nan nan 287 nan nan 301 314 313 309 306 307 298 293 294 295 295 295 298 301 303 304 306 307 307 310 312 314 313 314 316 318 318 319 318 318 321 323 322 321 318 317 315 314 315 315 313 311 312 313 nan 314 315 316 317 318 318 316 313 312
nan nan nan nan nan nan nan nan nan nan nan nan nan nan nan nan nan nan nan nan nan nan nan nan nan nan nan nan nan nan nan nan 291 303 306 314 318 318 311 305 300 298 295 296 299 298 300 301 304 307 308 310 311 311 311 312 314 317 318 318 317 316 318 320 319 317 317 316 313 312 312 313 312 311 311 312 314 314 315 315 315 316 315 316 315 313
nan nan nan nan nan nan nan nan nan nan nan nan nan nan nan nan nan nan nan nan nan nan nan nan nan nan nan nan nan nan nan nan nan 296 304 311 318 316 312 310 309 307 303 301 300 299 299 301 305 308 309 310 310 310 310 313 314 319 318 316 315 314 315 317 318 316 316 315 313 311 311 313 313 311 312 312 nan 313 315 316 317 316 315 314 314 313
nan nan nan nan nan nan nan nan nan nan nan nan nan nan nan nan nan nan nan nan nan nan nan nan nan nan nan nan nan nan nan nan nan 288 294 301 308 316 316 314 313 313 310 308 305 303 301 302 305 307 307 307 307 307 309 311 314 317 316 316 316 315 316 317 316 315 314 313 313 312 313 313 313 312 311 312 312 314 316 318 318 317 315 313 314 314
nan nan nan nan nan nan nan nan nan nan nan nan nan nan nan nan nan nan nan nan nan nan nan nan nan nan nan nan nan nan nan nan nan 281 287 295 305 310 314 317 315 314 314 312 311 308 305 303 305 306 305 305 305 308 311 309 311 315 316 315 316 316 315 314 313 313 312 312 312 313 312 313 312 311 310 nan nan 314 317 318 318 317 316 315 314 315
nan nan nan nan nan nan nan nan nan nan nan nan nan nan nan nan nan nan nan nan nan nan nan nan nan nan 264 269 nan 269 275 278 272 275 283 286 296 305 310 315 314 315 315 314 312 308 305 305 304 304 306 306 306 306 308 308 310 312 315 315 314 314 313 311 311 311 312 313 314 314 313 313 313 313 313 nan nan nan nan nan nan nan 317 315 314 314
nan nan nan nan nan nan nan nan nan nan nan nan nan nan nan nan nan nan nan nan nan nan nan nan nan nan 273 259 266 273 272 273 275 273 271 277 291 303 311 315 316 314 314 311 307 303 302 302 301 300 302 301 301 304 306 306 308 310 313 315 314 315 312 310 309 312 314 315 316 315 314 314 314 314 nan nan nan nan nan nan nan nan nan 315 315 314
nan nan nan nan nan nan nan nan nan nan nan nan nan nan nan nan nan nan nan nan nan nan nan nan nan nan 276 268 281 282 285 291 290 285 282 281 287 298 306 310 311 313 311 311 309 305 302 302 301 300 300 300 301 302 304 305 307 309 312 313 314 312 310 310 310 312 314 316 317 316 315 315 315 nan nan nan nan nan nan nan nan nan nan nan 315 315
nan nan nan nan nan nan nan nan nan nan nan nan nan nan nan nan nan nan nan nan nan nan nan nan nan nan 279 281 290 295 296 296 291 284 288 292 295 293 299 306 308 310 309 310 307 305 306 304 300 299 301 300 301 302 303 305 307 309 310 313 312 311 309 310 311 312 314 316 317 316 317 316 316 nan nan nan nan nan nan nan nan nan nan nan nan nan
nan nan nan nan nan nan nan nan nan nan nan nan nan nan nan nan nan nan nan nan nan 270 nan nan nan nan nan nan nan nan nan nan nan nan 300 297 300 300 298 302 306 308 307 307 304 300 299 299 302 301 301 300 301 302 303 305 307 308 309 311 313 310 310 310 310 312 315 317 317 317 317 318 318 nan nan nan nan nan nan nan nan nan nan nan nan nan
230 nan nan nan nan nan nan 236 nan nan nan nan nan nan nan nan nan nan nan nan 272 nan nan nan 283 nan nan nan nan nan nan nan nan 289 288 295 300 302 303 304 305 306 307 305 305 305 304 300 298 299 300 301 301 302 303 304 305 307 309 311 311 311 311 309 310 313 317 318 319 319 319 319 nan nan nan nan nan nan nan nan nan nan nan nan nan nan
nan nan nan nan nan 232 nan nan nan nan nan nan nan nan nan nan nan nan nan 276 281 nan nan 277 289 295 285 nan nan nan nan nan nan nan 278 278 286 293 299 303 306 308 307 310 311 308 306 304 301 300 301 301 302 304 303 303 305 305 307 310 310 310 310 309 311 315 318 319 320 320 320 320 nan nan nan nan nan 318 318 316 316 317 nan nan nan nan
225 nan 236 nan nan nan nan nan nan nan nan nan nan nan nan nan nan nan nan nan 285 285 nan 284 290 295 291 nan nan nan nan nan 284 278 278 285 289 291 297 303 305 306 308 311 311 309 307 306 303 303 302 302 304 303 302 302 304 306 308 309 309 308 308 309 313 316 318 319 320 320 321 321 321 320 319 318 318 318 318 318 318 nan nan nan nan nan
nan 234 nan nan nan nan nan nan nan nan nan nan nan nan nan nan nan nan nan nan nan nan nan nan 287 291 nan nan 288 nan nan 289 289 286 nan 277 282 289 296 300 302 304 307 307 306 306 305 304 304 303 303 303 304 303 300 301 304 306 310 310 309 308 309 311 314 317 318 319 319 320 320 321 320 319 318 318 319 321 320 319 319 nan nan nan 316 314
nan 232 nan nan nan nan nan nan nan nan nan nan nan nan nan nan nan nan nan 282 nan 285 286 288 nan nan nan nan 290 294 nan 300 nan 292 283 278 280 285 292 293 296 299 301 303 303 302 303 304 304 304 303 302 302 302 300 301 304 307 309 308 308 308 309 312 315 317 317 318 319 320 320 320 319 319 319 319 321 322 322 321 320 318 317 315 315 313
nan 237 240 241 nan nan nan nan nan nan nan nan nan nan nan nan nan nan nan nan nan nan nan nan nan nan nan nan nan nan nan nan 290 286 282 280 279 281 285 289 292 295 297 298 300 301 303 304 303 302 300 298 298 299 299 302 306 308 308 308 308 307 309 312 315 316 316 317 318 319 319 319 318 319 319 320 322 322 322 320 318 317 315 nan 312 312
233 236 237 nan nan nan nan nan nan nan nan nan 252 nan nan nan nan nan nan 282 nan nan nan nan nan nan nan nan nan nan nan nan 279 277 279 278 278 282 285 287 289 291 294 297 298 299 298 297 296 296 297 298 299 299 301 306 307 306 306 308 307 309 311 312 313 315 316 317 318 318 318 318 319 320 320 321 322 322 321 318 316 315 nan nan 313 313
236 237 236 241 nan nan 252 255 nan nan nan 250 255 253 256 nan nan nan nan nan nan nan nan nan nan nan nan nan nan nan 297 290 287 287 285 286 286 284 284 286 288 290 293 294 296 296 296 296 293 293 295 296 299 300 302 304 304 303 305 306 307 309 311 312 314 315 317 317 318 318 318 319 319 319 320 321 321 321 319 317 316 314 313 312 312 312
240 242 243 nan nan 247 255 nan nan nan 252 nan 258 260 259 nan 264 nan nan nan nan nan nan nan nan nan nan nan nan 294 293 292 291 293 294 292 292 289 287 286 289 291 293 292 295 295 295 294 294 295 294 295 298 302 304 303 302 302 304 304 306 308 310 312 314 316 318 318 318 318 318 318 318 318 319 320 320 320 319 318 316 315 313 314 312 311
234 242 247 nan 248 nan nan nan nan 253 260 262 nan 264 nan 270 nan nan nan nan nan nan nan nan nan nan nan nan nan 292 291 292 294 293 298 298 294 292 290 286 287 290 291 293 295 296 294 294 294 294 293 296 299 300 301 300 301 302 303 305 306 308 311 313 316 318 318 318 318 317 316 316 316 316 317 319 320 320 319 317 317 316 315 316 315 312
242 243 251 nan 253 250 nan nan nan nan nan 264 261 260 nan 260 nan nan nan nan nan nan nan nan nan nan nan nan 292 291 290 293 nan nan 290 292 291 292 290 288 287 289 291 293 294 294 294 293 293 293 297 300 301 301 298 299 301 302 303 305 307 311 313 315 317 318 318 317 316 315 314 314 315 316 317 318 319 320 319 317 317 316 314 315 313 311
249 247 244 254 255 nan nan nan nan nan nan nan nan 262 262 258 nan nan nan nan nan nan nan nan nan nan nan nan 291 291 292 nan nan 284 287 288 290 291 293 291 291 293 295 297 299 298 298 296 297 299 300 298 299 300 300 301 303 303 306 308 312 314 315 316 316 316 316 316 314 313 313 313 314 315 317 318 319 318 317 314 310 306 306 304 303 299
254 nan 254 nan nan nan nan nan nan nan nan 262 262 nan nan nan nan nan nan nan nan nan nan nan nan nan nan nan 289 292 290 nan nan 279 284 288 288 289 290 292 293 294 296 297 299 298 298 297 297 296 297 298 301 302 303 302 304 308 309 312 314 315 315 314 314 315 314 313 312 312 312 313 314 316 317 318 318 317 312 308 313 314 311 311 310 306
252 253 255 nan nan nan nan nan nan nan 258 258 nan nan nan nan nan nan nan nan nan nan nan nan nan nan nan 286 289 289 292 280 276 282 285 286 288 288 290 291 293 293 295 297 297 298 297 298 298 298 300 299 301 301 301 302 304 308 309 310 313 316 314 312 313 314 314 312 312 311 312 313 315 317 317 318 316 313 312 315 315 315 315 315 312 305
248 248 249 249 nan nan nan nan nan nan 252 nan nan nan nan nan nan nan 258 260 262 nan 270 nan nan nan nan 285 287 286 281 283 282 285 289 290 290 290 290 291 292 293 294 295 296 298 297 298 297 297 299 296 293 295 296 299 302 305 307 310 315 316 313 313 314 313 312 311 311 311 311 313 315 316 315 315 314 316 315 316 317 318 318 317 313 306
245 243 248 nan nan nan 251 251 nan nan 257 nan nan nan nan nan nan 255 256 257 260 263 265 267 270 266 271 280 285 282 281 285 288 289 289 288 289 291 291 291 290 292 293 293 293 295 294 294 295 297 298 297 295 293 296 299 303 305 308 313 316 315 314 314 313 311 310 310 310 311 312 313 316 316 315 315 317 318 319 319 321 321 319 318 314 306
241 239 nan nan nan 240 248 249 nan 245 nan nan nan 254 261 nan 256 259 256 258 259 263 267 270 270 269 271 274 278 285 285 284 285 287 289 289 289 289 289 288 288 288 289 292 292 293 296 293 292 291 292 293 293 294 297 301 305 308 310 314 311 312 313 313 310 308 308 310 311 312 312 312 313 314 314 317 318 320 321 321 320 320 319 317 312 306
240 234 234 239 250 241 nan 243 251 252 249 nan nan nan nan nan nan nan 259 262 263 267 270 274 272 275 282 284 286 290 290 290 289 290 289 289 288 288 287 288 287 287 286 287 287 290 292 294 294 293 291 290 291 293 295 299 304 308 312 310 309 310 311 310 308 307 309 312 312 311 311 310 310 312 314 316 317 319 319 321 321 320 318 315 311 307
nan 237 239 239 245 242 nan 245 nan nan nan nan nan nan nan nan nan nan 260 263 268 269 273 277 278 279 286 291 294 295 295 292 290 289 287 286 285 284 284 284 284 283 283 285 285 286 288 289 291 292 293 293 294 295 297 300 303 307 309 308 309 309 310 310 308 309 311 311 310 310 309 309 310 311 312 315 315 317 318 319 320 320 317 313 308 305
nan nan nan nan 246 nan 252 nan 250 nan nan nan nan nan nan nan nan nan 264 269 270 271 273 277 280 284 289 293 297 296 294 292 290 286 285 286 286 286 286 285 285 285 286 287 285 287 289 291 292 294 295 295 295 296 297 302 304 307 307 307 307 308 309 309 310 311 311 310 310 308 307 307 307 308 311 314 314 315 317 319 320 319 315 310 305 301
nan nan nan nan nan nan 253 nan nan nan nan nan nan nan nan nan nan nan nan 269 275 275 277 278 283 289 291 294 296 295 292 292 290 287 287 287 286 286 285 285 285 284 284 284 286 288 290 292 293 293 292 290 289 291 293 296 301 304 305 306 310 309 308 310 310 311 309 308 306 306 306 306 308 311 311 311 312 313 314 317 320 318 314 307 300 296
nan nan nan nan nan nan nan nan nan nan nan 271 nan nan nan nan nan nan 257 262 270 275 279 283 287 287 291 292 293 293 292 289 290 291 290 286 286 286 286 285 285 285 286 287 287 288 288 288 287 286 286 287 288 289 292 295 297 299 301 302 301 305 310 310 307 306 306 306 306 305 306 308 311 312 310 309 312 314 309 308 313 310 302 289 286 282
nan nan nan nan nan nan nan nan nan nan nan nan nan nan nan nan nan nan 256 260 264 270 275 282 286 287 290 290 292 293 292 288 289 290 288 285 286 285 285 285 284 284 284 284 285 285 285 284 284 284 286 288 290 291 293 295 298 301 305 304 304 307 308 307 306 306 307 307 305 306 309 309 308 308 309 310 310 312 306 297 nan nan 303 296 282 273
nan 251 nan 257 nan nan nan nan nan nan nan nan nan nan nan nan nan nan nan 259 261 267 275 281 286 288 288 289 291 291 288 285 285 283 283 283 282 282 282 283 283 283 283 283 283 282 282 283 284 286 288 289 291 293 295 297 298 300 301 301 304 306 307 306 305 304 304 304 304 298 300 304 307 308 309 309 310 310 313 310 nan nan nan nan nan nan